This demonstration page uses our WeatherBlox Daily Observations layout. Learn more.

Left ArrowRight Arrow

34.74481, -87.66753

Hourly Observations for June 16, 2017

Temp ( °F °C ) Dew Point ( °F °C ) Humidity (%) Winds ( mph kmh ) Pressure ( in mb ) Visibility ( mi km ) Precip ( " mm )
12:53 am 00:53 Clear 67 19.4 63 17.2 87 87 Calm 29.92 1013 10 16 0.00 0.00
1:53 am 01:53 Clear 65 18.3 62 16.7 90 90 Calm 29.91 1013 10 16 0.00 0.00
2:53 am 02:53 Clear with Mist and Fog 64 17.8 62 16.7 93 93 Calm 29.92 1013 6 10 0.00 0.00
3:03 am 03:03 Clear with Mist and Fog 64 17.8 62 16.7 93 93 Calm 29.91 1013 3 4 0.00 0.00
3:12 am 03:12 Clear with Mist and Fog 64 17.8 62 16.7 93 93 ESE 3 6 29.91 1013 3 5 0.00 0.00
3:16 am 03:16 Clear with Mist and Fog 64 17.8 62 16.7 93 93 SE 5 7 29.91 1013 2 3 0.00 0.00
3:27 am 03:27 Clear with Mist and Fog 63 17.2 60 15.6 90 90 ESE 5 7 29.91 1013 3 5 0.00 0.00
3:53 am 03:53 Clear with Mist and Fog 64 17.8 62 16.7 93 93 SE 3 6 29.92 1013 4 6 0.00 0.00
4:25 am 04:25 Mostly Clear with Mist and Fog 63 17.2 61 16.1 93 93 ESE 3 6 29.91 1013 2 3 0.00 0.00
4:38 am 04:38 Clear 64 17.8 62 16.7 93 93 Calm 29.91 1013 10 16 0.00 0.00
4:53 am 04:53 Clear with Mist and Fog 63 17.2 62 16.7 97 97 Calm 29.93 1013 5 8 0.00 0.00
5:01 am 05:01 Clear with Mist and Fog 63 17.2 61 16.1 93 93 Calm 29.91 1013 2 3 0.00 0.00
5:20 am 05:20 Clear with Mist and Fog 63 17.2 61 16.1 93 93 Calm 29.91 1013 3 5 0.00 0.00
5:24 am 05:24 Mostly Clear with Mist and Fog 63 17.2 61 16.1 93 93 Calm 29.91 1013 2 3 0.00 0.00
5:38 am 05:38 Mostly Cloudy with Mist and Fog 64 17.8 62 16.7 93 93 Calm 29.91 1013 2 3 0.00 0.00
5:43 am 05:43 Mostly Cloudy with Mist and Fog 64 17.8 62 16.7 93 93 Calm 29.91 1013 3 5 0.00 0.00
5:53 am 05:53 Cloudy 65 18.3 63 17.2 93 93 Calm 29.94 1014 10 16 0.00 0.00
6:46 am 06:46 Cloudy 66 18.9 64 17.8 93 93 Calm 29.94 1014 10 16 0.00 0.00
6:53 am 06:53 Cloudy 66 18.9 64 17.8 93 93 Calm 29.95 1014 10 16 0.00 0.00
7:53 am 07:53 Cloudy 68 20 66 18.9 93 93 Calm 29.93 1014 10 16 0.00 0.00
8:11 am 08:11 Cloudy 69 20.6 67 19.4 93 93 Calm 29.91 1013 10 16 0.00 0.00
8:33 am 08:33 Cloudy with Mist and Fog 70 21.1 68 20 93 93 Calm 29.91 1013 2 3 0.00 0.00
8:45 am 08:45 Cloudy with Mist and Fog 70 21.1 68 20 93 93 Calm 29.91 1013 4 6 0.00 0.00
8:53 am 08:53 Cloudy 70 21.1 67 19.4 90 90 Calm 29.92 1013 8 13 0.00 0.00
9:53 am 09:53 Cloudy 71 21.7 68 20 90 90 VRB 3 6 29.93 1014 10 16 0.00 0.00
10:00 am 10:00 Cloudy 72 22.2 68 20 87 87 ESE 3 6 29.91 1013 10 16 0.00 0.00
10:53 am 10:53 Mostly Cloudy 75 23.9 68 20 79 79 Calm 29.92 1013 10 16 0.00 0.00
11:07 am 11:07 Mostly Cloudy 77 25 69 20.6 77 77 Calm 29.91 1013 10 16 0.00 0.00
11:29 am 11:29 Partly Cloudy 79 26.1 69 20.6 72 72 VRB 6 9 29.91 1013 10 16 0.00 0.00
11:53 am 11:53 Mostly Sunny 79 26.1 69 20.6 72 72 E 5 7 29.92 1013 10 16 0.00 0.00
12:53 pm 12:53 Mostly Sunny 82 27.8 69 20.6 65 65 VRB 5 7 29.91 1013 10 16 0.00 0.00
1:53 pm 13:53 Sunny 85 29.4 68 20 57 57 VRB 3 6 29.88 1012 10 16 0.00 0.00
2:53 pm 14:53 Sunny 88 31.1 67 19.4 50 50 VRB 5 7 29.85 1011 10 16 0.00 0.00
3:53 pm 15:53 Sunny 86 30 67 19.4 53 53 SE 6 9 29.84 1011 10 16 0.00 0.00
4:53 pm 16:53 Partly Cloudy 87 30.6 64 17.8 46 46 W 3 6 29.85 1011 10 16 0.00 0.00
5:53 pm 17:53 Sunny 90 32.2 65 18.3 44 44 Calm 29.82 1010 10 16 0.00 0.00
6:53 pm 18:53 Sunny 85 29.4 67 19.4 55 55 SSE 3 6 29.81 1010 10 16 0.00 0.00
7:53 pm 19:53 Sunny 81 27.2 69 20.6 67 67 S 5 7 29.82 1010 10 16 0.00 0.00
8:53 pm 20:53 Clear 78 25.6 69 20.6 74 74 Calm 29.83 1010 10 16 0.00 0.00
9:53 pm 21:53 Mostly Clear 78 25.6 69 20.6 74 74 W 5 7 29.83 1010 10 16 0.00 0.00
10:53 pm 22:53 Clear 74 23.3 69 20.6 85 85 Calm 29.83 1010 10 16 0.00 0.00
11:53 pm 23:53 Clear 73 22.8 68 20 84 84 SSW 3 6 29.83 1010 10 16 0.00 0.00

Powered by AerisWeather